Regional Weather Roundup
Issued by NWS Sterling, VA

Home | Current Version | Previous Version | Graphics & Text | Print | Product List | Glossary On
Versions: 1 2 3 4 5 6 7 8 9 10 11 12 13 14 15 16 17 18 19 20 21 22 23 24 25 26 27
000
ASUS41 KLWX 240410
RWRLWX

REGIONAL WEATHER ROUNDUP
NATIONAL WEATHER SERVICE BALTIMORE MD/WASHINGTON DC
1200 AM EDT THU APR 24 2014

Note: "FAIR" indicates few or no clouds below 12,000 feet
with no significant weather and/or obstructions to visibility.
 TC=TEMPERATURE CELSIUS

 * =Non NWS site. Station does not report precipitation (e.g. rain,
    snow, etc.), thunder, or fog.

DCZ001-MDZ009-015-VAZ040>042-051-053>054-240500-
WASHINGTON METRO

CITY           SKY/WX    TMP DP  RH WIND       PRES   REMARKS
WASHINGTON NAT CLEAR     50  30  46 NW9       30.00S
DULLES         CLEAR     47  28  47 NW18      30.01R
ANDREWS AFB    CLEAR     48  30  49 NW13      29.99R
FT BELVOIR     CLEAR     50  28  43 NW14      30.01R
QUANTICO       CLEAR     51  28  41 NW12G23   30.02R
COLLEGE PARK*  CLEAR     48  32  53 NW6       29.99S
LEESBURG*      CLEAR     46  32  57 NW15G24   30.01R
MANASSAS*      CLEAR     48  30  49 NW13G22   30.02R
GAITHERSBURG*  CLEAR     45  28  53 NW7       30.01S

$$

MDZ006>007-011-014-240500-
BALTIMORE METRO

CITY           SKY/WX    TMP DP  RH WIND       PRES   REMARKS
BWI AIRPORT    CLEAR     43  30  60 W6        29.97S
MD SCIENCE CTR   N/A     48  30  49 MISG      29.98R
MARTIN STATE   CLEAR     45  32  61 W8        29.98S
ANNAPOLIS      CLEAR     49  33  54 NW8       29.98R
FORT MEADE*    CLEAR     41  32  70 W5        30.01R

$$

MDZ012-015-019>023-240500-
MARYLAND EASTERN SHORE

CITY           SKY/WX    TMP DP  RH WIND       PRES   REMARKS
OCEAN CITY     CLEAR     49  31  49 NW16G30   29.93R
SALISBURY      CLEAR     50  30  46 NW18G24   29.95R
BAY BRIDGE AP* CLEAR     48  32  53 NW12      29.98R
CAMBRIDGE*     CLEAR     52  32  46 NW13G28   29.97R
EASTON*        CLEAR     49  34  56 N10G18    30.00S

$$

MDZ017>025-240500-
SOUTHERN MARYLAND

CITY           SKY/WX    TMP DP  RH WIND       PRES   REMARKS
PATUXENT RIVER CLEAR     50  30  46 N16       29.98R
ST INIGOES     CLEAR     51  33  50 NW5       29.98R
LEONARDTOWN*   CLEAR     48  30  49 NW7G16    29.99S

$$

MDZ003>005-240500-
NORTH CENTRAL MARYLAND

CITY           SKY/WX    TMP DP  RH WIND       PRES   REMARKS
FREDERICK*     CLEAR     46  32  57 NW9G18    30.02R
HAGERSTOWN APT CLEAR     43  27  53 NW10      30.00S
WESTMINSTER*   CLEAR     45  30  57 NW8       29.97S

$$

MDZ501>502-240500-
WESTERN MARYLAND

CITY           SKY/WX    TMP DP  RH WIND       PRES   REMARKS
OAKLAND*       CLEAR     34  25  69 NW8       30.02R WCI  27
CUMBERLAND*    CLEAR     46  28  49 N7        30.09S

$$

VAZ025>031-240500-
SHENANDOAH VALLEY

CITY           SKY/WX    TMP DP  RH WIND       PRES   REMARKS
WINCHESTER*    CLEAR     45  30  57 NW10      30.03S
STAUNTON*      CLEAR     40  29  66 CALM      30.04R

$$

WVZ021-048>050-054>055-240500-
EASTERN WEST VIRGINIA PANHANDLE

CITY           SKY/WX    TMP DP  RH WIND       PRES   REMARKS
MARTINSBURG    CLEAR     46  27  47 NW5       30.03R
PETERSBURG*    CLEAR     49  35  58 N6        30.07S

$$

VAZ036>039-050-240500-
CENTRAL FOOTHILLS

CITY           SKY/WX    TMP DP  RH WIND       PRES   REMARKS
CHARLOTTESVILL CLEAR     51  29  42 NW6       30.01R
CULPEPER*      CLEAR     52  28  40 N12       30.02S

$$

VAZ055>057-240500-
NORTH AND CENTRAL PIEDMONT

CITY           SKY/WX    TMP DP  RH WIND       PRES   REMARKS
FREDERICKSBRG* CLEAR     52  33  47 N8G17     30.01R
STAFFORD*      CLEAR     49  34  56 NW13      30.05R

$$

NCZ024-NYZ072-PAZ021-071-VAZ022-071-240500-
OTHER REGIONAL OBSERVATIONS

CITY           SKY/WX    TMP DP  RH WIND       PRES   REMARKS
NEW YORK CITY  PTCLDY    45  29  53 MISG      29.85R
PHILADELPHIA   CLEAR     47  24  40 NW17G24   29.95R
PITTSBURGH     CLEAR     38  16  40 NW8       30.09R
ROANOKE        CLEAR     53  28  38 N20       30.04R
RICHMOND       CLEAR     50  32  50 NW8       29.99R
RALEIGH        CLEAR     56  31  38 NE5       29.99R

$$

ANZ530>537-240500-
MARINE OBSERVATIONS

STATION/POSITION TIME  TEMP    WIND        PRES
                       AIR SEA DIR/SP/G
                 (UTC) (F)     (DEG/KT/KT) (MB)
THOMAS PT LIGHT  0400   49 53  310/ 13/ 15 1015.6R
BALT KEY BRIDGE  0400   49     270/ 12/ 13 1015.0R
COVE POINT       0400   51     350/ 25/ 28 1014.8F
LEWISETTA        0400   52 58  350/ 15/ 21 1015.2R
SOLOMONS ISLAND  0400      56                N/A
PINEY POINT      0400          350/ 19/ 21   N/A

$$




USA.gov is the U.S. government's official web portal to all federal, state and local government web resources and services.